Orenge 7 — JL6148 — position and weather

sailwx.info

Track history (hours):
 
Tides and Currents Weather Stations Pressure Air Temp Water Temp Dewpoint Dewpoint Depression Visibility Wind Speed Wind Dir Waves Ship Positions

Orenge 7

Last reported at 2014-Oct-30 14:33 UTC. Time now 2014-Oct-31 15:47 UTC.
Position N 34°37' E 134°57'.

Length 163 m; draft 4.9 m.

Type: Passenger vessel. MMSI: 431500186.

Date/timePositionNaut miles runAvg speedWind from/ knotsBaromVisibWave heightAir tempDewpointWater temp
2014-Oct-30 14:33N 34°37' E 134°57'1918.5
2014-Oct-30 13:33N 34°36' E 135°19'5 5.0
2014-Oct-30 12:28N 34°37' E 135°26'0 0.0
2014-Oct-30 11:34N 34°37' E 135°26'0 0.0
2014-Oct-30 10:04N 34°37' E 135°26'0 0.0
2014-Oct-30 09:22N 34°37' E 135°26'0 0.0
2014-Oct-30 08:28N 34°37' E 135°26'0 0.0
2014-Oct-30 07:34N 34°37' E 135°26'0 0.0
2014-Oct-30 06:28N 34°37' E 135°26'0 0.0
2014-Oct-30 05:34N 34°37' E 135°26'0 0.0
2014-Oct-30 04:28N 34°37' E 135°26'0 0.0
2014-Oct-30 03:22N 34°37' E 135°26'0 0.0
2014-Oct-30 02:22N 34°37' E 135°26'0 0.0
2014-Oct-30 01:22N 34°37' E 135°26'0 0.0
2014-Oct-30 00:28N 34°37' E 135°26'0 0.0
2014-Oct-29 23:34N 34°37' E 135°26'0 0.0
2014-Oct-29 22:04N 34°37' E 135°26'0 0.0
2014-Oct-29 21:16N 34°37' E 135°26'5 7.7
2014-Oct-29 20:33N 34°36' E 135°19'1818.4
2014-Oct-29 19:33N 34°36' E 134°57'1 0.0
2014-Oct-28 14:33N 34°36' E 134°56'1918.9
2014-Oct-28 13:33N 34°37' E 135°19'6 5.9
2014-Oct-28 12:32N 34°37' E 135°26'0 0.0
2014-Oct-28 11:20N 34°37' E 135°26'0 0.0
2014-Oct-28 10:26N 34°37' E 135°26'0 0.0
2014-Oct-28 09:32N 34°37' E 135°26'0 0.0
2014-Oct-28 08:20N 34°37' E 135°26'0 0.0
2014-Oct-28 07:26N 34°37' E 135°26'0 0.0
2014-Oct-28 06:20N 34°37' E 135°26'0 0.0
2014-Oct-28 05:26N 34°37' E 135°26'0 0.0
2014-Oct-28 03:32N 34°37' E 135°26'0 0.0
2014-Oct-28 01:32N 34°37' E 135°26'0 0.0
2014-Oct-28 00:26N 34°37' E 135°26'0 0.0
2014-Oct-27 23:32N 34°37' E 135°26'0 0.0
2014-Oct-27 22:32N 34°37' E 135°26'0 0.0
2014-Oct-27 21:32N 34°37' E 135°26'6 5.8
2014-Oct-27 20:33N 34°35' E 135°19'1817.9
2014-Oct-27 19:33N 34°36' E 134°58'1919.4
2014-Oct-27 18:33N 34°28' E 134°36'17 0.6
2014-Oct-26 14:33N 34°36' E 134°54'2019.5
2014-Oct-26 13:33N 34°36' E 135°18'7 6.3
2014-Oct-26 12:29N 34°37' E 135°26'0 0.0
2014-Oct-26 11:23N 34°37' E 135°26'0 0.0
2014-Oct-26 10:29N 34°37' E 135°26'0 0.0
2014-Oct-26 09:29N 34°37' E 135°26'0 0.0
2014-Oct-26 08:29N 34°37' E 135°26'0 0.0
2014-Oct-26 07:23N 34°37' E 135°26'0 0.0
2014-Oct-26 06:29N 34°37' E 135°26'0 0.0
2014-Oct-26 05:29N 34°37' E 135°26'0 0.0
2014-Oct-26 04:29N 34°37' E 135°26'0 0.0
2014-Oct-26 02:29N 34°37' E 135°26'0 0.0
2014-Oct-26 01:17N 34°37' E 135°26'0 0.0
2014-Oct-25 23:29N 34°37' E 135°26'0 0.0
2014-Oct-25 22:29N 34°37' E 135°26'0 0.0
2014-Oct-25 21:29N 34°37' E 135°26'6 6.4
2014-Oct-25 20:33N 34°36' E 135°19'1817.9
2014-Oct-25 19:33N 34°36' E 134°57'1 0.0
2014-Oct-24 14:32N 34°37' E 134°56'1918.8
2014-Oct-24 13:33N 34°37' E 135°18'6 2.1
2014-Oct-24 10:31N 34°37' E 135°26'0 0.0
2014-Oct-24 09:31N 34°37' E 135°26'0 0.0
2014-Oct-24 08:31N 34°37' E 135°26'0 0.0
2014-Oct-24 07:19N 34°37' E 135°26'0 0.0
2014-Oct-24 06:31N 34°37' E 135°26'0 0.0
2014-Oct-24 05:31N 34°37' E 135°26'0 0.0
2014-Oct-24 04:25N 34°37' E 135°26'0 0.0
2014-Oct-24 03:31N 34°37' E 135°26'0 0.0
2014-Oct-24 02:25N 34°37' E 135°26'0 0.0
2014-Oct-24 01:31N 34°37' E 135°26'0 0.0
2014-Oct-24 00:25N 34°37' E 135°26'0 0.0
2014-Oct-23 23:31N 34°37' E 135°26'0 0.0
2014-Oct-23 22:25N 34°37' E 135°26'0 0.0
2014-Oct-23 21:13N 34°37' E 135°26'6 8.8
2014-Oct-23 20:33N 34°36' E 135°19'1817.7
2014-Oct-23 19:33N 34°36' E 134°57'1 0.0
2014-Oct-22 14:33N 34°36' E 134°56'1818.2
2014-Oct-22 13:33N 34°36' E 135°18'6 6.0
2014-Oct-22 12:29N 34°37' E 135°26'0 0.0
2014-Oct-22 11:23N 34°37' E 135°26'0 0.0
2014-Oct-22 10:23N 34°37' E 135°26'0 0.0
2014-Oct-22 09:23N 34°37' E 135°26'0 0.0
2014-Oct-22 08:23N 34°37' E 135°26'0 0.0
2014-Oct-22 07:05N 34°37' E 135°26'0 0.0
2014-Oct-22 06:23N 34°37' E 135°26'0 0.0
2014-Oct-22 05:17N 34°37' E 135°26'0 0.0
2014-Oct-22 04:23N 34°37' E 135°26'0 0.0
2014-Oct-22 03:29N 34°37' E 135°26'0 0.0
2014-Oct-22 02:29N 34°37' E 135°26'0 0.0
2014-Oct-22 01:17N 34°37' E 135°26'0 0.0
2014-Oct-22 00:05N 34°37' E 135°26'0 0.0
2014-Oct-21 21:23N 34°37' E 135°26'6 7.5
2014-Oct-21 20:33N 34°35' E 135°19'1716.9
2014-Oct-21 19:33N 34°37' E 134°58'1 0.0
2014-Oct-20 14:33N 34°37' E 134°58'  
Track history (hours):
 
Tides and Currents Weather Stations Pressure Air Temp Water Temp Dewpoint Dewpoint Depression Visibility Wind Speed Wind Dir Waves Ship Positions

Orenge 7

Last reported at 2014-Oct-30 14:33 UTC. Time now 2014-Oct-31 15:47 UTC.
Position N 34°37' E 134°57'.

Length 163 m; draft 4.9 m.

Type: Passenger vessel. MMSI: 431500186.

Date/timePositionNaut miles runAvg speedWind from/ knotsBaromVisibWave heightAir tempDewpointWater temp
2014-Oct-30 14:33N 34°37' E 134°57'1918.5
2014-Oct-30 13:33N 34°36' E 135°19'5 5.0
2014-Oct-30 12:28N 34°37' E 135°26'0 0.0
2014-Oct-30 11:34N 34°37' E 135°26'0 0.0
2014-Oct-30 10:04N 34°37' E 135°26'0 0.0
2014-Oct-30 09:22N 34°37' E 135°26'0 0.0
2014-Oct-30 08:28N 34°37' E 135°26'0 0.0
2014-Oct-30 07:34N 34°37' E 135°26'0 0.0
2014-Oct-30 06:28N 34°37' E 135°26'0 0.0
2014-Oct-30 05:34N 34°37' E 135°26'0 0.0
2014-Oct-30 04:28N 34°37' E 135°26'0 0.0
2014-Oct-30 03:22N 34°37' E 135°26'0 0.0
2014-Oct-30 02:22N 34°37' E 135°26'0 0.0
2014-Oct-30 01:22N 34°37' E 135°26'0 0.0
2014-Oct-30 00:28N 34°37' E 135°26'0 0.0
2014-Oct-29 23:34N 34°37' E 135°26'0 0.0
2014-Oct-29 22:04N 34°37' E 135°26'0 0.0
2014-Oct-29 21:16N 34°37' E 135°26'5 7.7
2014-Oct-29 20:33N 34°36' E 135°19'1818.4
2014-Oct-29 19:33N 34°36' E 134°57'1 0.0
2014-Oct-28 14:33N 34°36' E 134°56'1918.9
2014-Oct-28 13:33N 34°37' E 135°19'6 5.9
2014-Oct-28 12:32N 34°37' E 135°26'0 0.0
2014-Oct-28 11:20N 34°37' E 135°26'0 0.0
2014-Oct-28 10:26N 34°37' E 135°26'0 0.0
2014-Oct-28 09:32N 34°37' E 135°26'0 0.0
2014-Oct-28 08:20N 34°37' E 135°26'0 0.0
2014-Oct-28 07:26N 34°37' E 135°26'0 0.0
2014-Oct-28 06:20N 34°37' E 135°26'0 0.0
2014-Oct-28 05:26N 34°37' E 135°26'0 0.0
2014-Oct-28 03:32N 34°37' E 135°26'0 0.0
2014-Oct-28 01:32N 34°37' E 135°26'0 0.0
2014-Oct-28 00:26N 34°37' E 135°26'0 0.0
2014-Oct-27 23:32N 34°37' E 135°26'0 0.0
2014-Oct-27 22:32N 34°37' E 135°26'0 0.0
2014-Oct-27 21:32N 34°37' E 135°26'6 5.8
2014-Oct-27 20:33N 34°35' E 135°19'1817.9
2014-Oct-27 19:33N 34°36' E 134°58'1919.4
2014-Oct-27 18:33N 34°28' E 134°36'17 0.6
2014-Oct-26 14:33N 34°36' E 134°54'2019.5
2014-Oct-26 13:33N 34°36' E 135°18'7 6.3
2014-Oct-26 12:29N 34°37' E 135°26'0 0.0
2014-Oct-26 11:23N 34°37' E 135°26'0 0.0
2014-Oct-26 10:29N 34°37' E 135°26'0 0.0
2014-Oct-26 09:29N 34°37' E 135°26'0 0.0
2014-Oct-26 08:29N 34°37' E 135°26'0 0.0
2014-Oct-26 07:23N 34°37' E 135°26'0 0.0
2014-Oct-26 06:29N 34°37' E 135°26'0 0.0
2014-Oct-26 05:29N 34°37' E 135°26'0 0.0
2014-Oct-26 04:29N 34°37' E 135°26'0 0.0
2014-Oct-26 02:29N 34°37' E 135°26'0 0.0
2014-Oct-26 01:17N 34°37' E 135°26'0 0.0
2014-Oct-25 23:29N 34°37' E 135°26'0 0.0
2014-Oct-25 22:29N 34°37' E 135°26'0 0.0
2014-Oct-25 21:29N 34°37' E 135°26'6 6.4
2014-Oct-25 20:33N 34°36' E 135°19'1817.9
2014-Oct-25 19:33N 34°36' E 134°57'1 0.0
2014-Oct-24 14:32N 34°37' E 134°56'1918.8
2014-Oct-24 13:33N 34°37' E 135°18'6 2.1
2014-Oct-24 10:31N 34°37' E 135°26'0 0.0
2014-Oct-24 09:31N 34°37' E 135°26'0 0.0
2014-Oct-24 08:31N 34°37' E 135°26'0 0.0
2014-Oct-24 07:19N 34°37' E 135°26'0 0.0
2014-Oct-24 06:31N 34°37' E 135°26'0 0.0
2014-Oct-24 05:31N 34°37' E 135°26'0 0.0
2014-Oct-24 04:25N 34°37' E 135°26'0 0.0
2014-Oct-24 03:31N 34°37' E 135°26'0 0.0
2014-Oct-24 02:25N 34°37' E 135°26'0 0.0
2014-Oct-24 01:31N 34°37' E 135°26'0 0.0
2014-Oct-24 00:25N 34°37' E 135°26'0 0.0
2014-Oct-23 23:31N 34°37' E 135°26'0 0.0
2014-Oct-23 22:25N 34°37' E 135°26'0 0.0
2014-Oct-23 21:13N 34°37' E 135°26'6 8.8
2014-Oct-23 20:33N 34°36' E 135°19'1817.7
2014-Oct-23 19:33N 34°36' E 134°57'1 0.0
2014-Oct-22 14:33N 34°36' E 134°56'1818.2
2014-Oct-22 13:33N 34°36' E 135°18'6 6.0
2014-Oct-22 12:29N 34°37' E 135°26'0 0.0
2014-Oct-22 11:23N 34°37' E 135°26'0 0.0
2014-Oct-22 10:23N 34°37' E 135°26'0 0.0
2014-Oct-22 09:23N 34°37' E 135°26'0 0.0
2014-Oct-22 08:23N 34°37' E 135°26'0 0.0
2014-Oct-22 07:05N 34°37' E 135°26'0 0.0
2014-Oct-22 06:23N 34°37' E 135°26'0 0.0
2014-Oct-22 05:17N 34°37' E 135°26'0 0.0
2014-Oct-22 04:23N 34°37' E 135°26'0 0.0
2014-Oct-22 03:29N 34°37' E 135°26'0 0.0
2014-Oct-22 02:29N 34°37' E 135°26'0 0.0
2014-Oct-22 01:17N 34°37' E 135°26'0 0.0
2014-Oct-22 00:05N 34°37' E 135°26'0 0.0
2014-Oct-21 21:23N 34°37' E 135°26'6 7.5
2014-Oct-21 20:33N 34°35' E 135°19'1716.9
2014-Oct-21 19:33N 34°37' E 134°58'1 0.0
2014-Oct-20 14:33N 34°37' E 134°58'  

Dump ship's entire track history